Back to catalog

CZ-2D DEB

AliveSSO
NORAD 44549·DEBRIS·🇨🇳 China

Launched Sep 25, 2019 from Jiuquan Satellite Launch Center

Loading…

Next Passes (next 24 hours)

TLE

FreshSource: Space-Track

Epoch: Sep 14, 2026, 11:07 UTC

1 44549U 19063C   26257.46328419  .00000295  00000-0  10673-3 0  9990
2 44549  98.3486 270.5976 0039199 218.7984 141.0388 14.39880582365559

Track CZ-2D DEB in real time with AllMySat

Download on the App Store